GW1914 Weather Reports


Display with metric or nautical units.
time (UTC)temp
F
wind
direction
speed
MPH
gust
MPH
rain 1hr
in
rain 24hr
in
rain mn
in
humidity
%
barometer
mb
20260504050523 58 231 2.0 4.0 0.00 0.00 0.00 69 1011.3
20260504045524 57 269 1.0 4.0 0.00 0.00 0.00 71 1011.3
20260504045035 58 239 2.0 4.0 0.00 0.00 0.00 70 1011.3
20260504044529 58 244 1.0 3.0 0.00 0.00 0.00 68 1011.4
20260504044040 59 242 1.0 4.0 0.00 0.00 0.00 67 1011.3
20260504043527 60 244 2.0 4.0 0.00 0.00 0.00 67 1011.4
20260504043035 61 98 1.0 6.0 0.00 0.00 0.00 66 1011.4
20260504042535 61 78 1.0 7.0 0.00 0.00 0.00 64 1011.2
20260504042023 61 188 4.0 7.0 0.00 0.00 0.00 62 1011.3
20260504041521 62 254 2.0 5.0 0.00 0.00 0.00 59 1011.3
20260504041032 62 175 1.0 7.0 0.00 0.00 0.00 62 1011.3
20260504040521 62 143 3.0 7.0 0.00 0.00 0.00 58 1011.4
20260504040036 63 185 2.0 6.0 0.00 0.00 0.00 56 1011.4
20260504035524 63 184 1.0 4.0 0.00 0.00 0.00 58 1011.1
20260504035035 62 194 2.0 3.0 0.00 0.00 0.00 62 1011.0
20260504034530 62 200 0.0 3.0 0.00 0.00 0.00 63 1011.0
20260504034021 62 197 1.0 3.0 0.00 0.00 0.00 62 1010.9
20260504033528 62 247 2.0 3.0 0.00 0.00 0.00 64 1010.9
20260504033023 62 217 2.0 3.0 0.00 0.00 0.00 62 1010.9
20260504032533 63 184 1.0 3.0 0.00 0.00 0.00 63 1011.0
20260504032024 64 239 0.0 3.0 0.00 0.00 0.00 57 1010.8
20260504031522 64 240 1.0 3.0 0.00 0.00 0.00 57 1010.7
20260504031028 64 244 2.0 4.0 0.00 0.00 0.00 56 1010.7
20260504030520 64 227 1.0 3.0 0.00 0.00 0.00 56 1010.8
20260504030034 64 184 1.0 3.0 0.00 0.00 0.00 57 1010.8
20260504025525 66 210 1.0 2.0 0.00 0.00 0.00 52 1010.8
20260504025036 67 233 1.0 2.0 0.00 0.00 0.00 45 1010.8
20260504024534 68 195 1.0 2.0 0.00 0.00 0.00 44 1010.9
20260504024022 68 195 1.0 3.0 0.00 0.00 0.00 40 1010.8
20260504023530 68 195 1.0 3.0 0.00 0.00 0.00 41 1010.8
20260504023031 69 229 0.0 3.0 0.00 0.00 0.00 39 1010.8
20260504022536 70 143 0.0 3.0 0.00 0.00 0.00 37 1010.8
20260504022026 70 209 1.0 3.0 0.00 0.00 0.00 38 1010.9
20260504021524 71 146 0.0 5.0 0.00 0.00 0.00 34 1010.9
20260504021032 71 144 1.0 5.0 0.00 0.00 0.00 31 1010.9
20260504020526 71 256 2.0 3.0 0.00 0.00 0.00 37 1011.0
20260504020023 71 171 0.0 3.0 0.00 0.00 0.00 34 1011.1
20260504015532 70 202 1.0 3.0 0.00 0.00 0.00 35 1011.1
20260504015021 71 238 0.0 2.0 0.00 0.00 0.00 39 1011.2
20260504014528 73 328 1.0 2.0 0.00 0.00 0.00 31 1011.2
20260504014028 73 328 1.0 2.0 0.00 0.00 0.00 30 1011.2
20260504013518 74 94 1.0 2.0 0.00 0.00 0.00 27 1011.2
20260504013043 74 130 0.0 2.0 0.00 0.00 0.00 28 1011.2
20260504012526 73 319 0.0 2.0 0.00 0.00 0.00 30 1011.3
20260504012035 73 168 0.0 3.0 0.00 0.00 0.00 32 1011.4
20260504011531 73 158 1.0 3.0 0.00 0.00 0.00 34 1011.5
20260504011022 74 313 1.0 2.0 0.00 0.00 0.00 28 1011.4
20260504010533 74 230 1.0 2.0 0.00 0.00 0.00 30 1011.5
20260504010024 74 296 0.0 4.0 0.00 0.00 0.00 30 1011.5
20260504005536 74 110 2.0 4.0 0.00 0.00 0.00 28 1011.7
20260504005025 74 110 0.0 4.0 0.00 0.00 0.00 31 1011.8
20260504004529 73 103 1.0 4.0 0.00 0.00 0.00 28 1011.8
20260504004031 74 5 0.0 2.0 0.00 0.00 0.00 31 1011.9
20260504003522 75 165 0.0 3.0 0.00 0.00 0.00 29 1011.9
20260504003037 75 165 0.0 3.0 0.00 0.00 0.00 28 1011.9
20260504002526 75 195 1.0 3.0 0.00 0.00 0.00 28 1011.8
20260504002035 74 251 1.0 5.0 0.00 0.00 0.00 30 1011.9
20260504001536 75 124 2.0 5.0 0.00 0.00 0.00 32 1012.0
20260504001021 74 15 0.0 2.0 0.00 0.00 0.00 33 1012.1
20260504000531 75 11 0.0 3.0 0.00 0.00 0.00 32 1012.2
20260504000027 75 96 1.0 2.0 0.00 0.00 0.00 28 1012.2
20260503235536 75 311 1.0 3.0 0.00 0.00 0.00 29 1012.1
20260503235028 75 346 1.0 3.0 0.00 0.00 0.00 28 1012.1
20260503234527 75 119 0.0 2.0 0.00 0.00 0.00 28 1012.2
20260503234033 75 324 1.0 2.0 0.00 0.00 0.00 28 1012.2
20260503233522 76 245 1.0 2.0 0.00 0.00 0.00 28 1012.4
20260503233021 76 322 0.0 5.0 0.00 0.00 0.00 26 1012.5
20260503232530 75 119 2.0 5.0 0.00 0.00 0.00 27 1012.4
20260503232023 75 217 2.0 5.0 0.00 0.00 0.00 26 1012.5
20260503231537 74 141 1.0 4.0 0.00 0.00 0.00 28 1012.5
20260503231029 75 119 1.0 4.0 0.00 0.00 0.00 33 1012.5
20260503230537 75 233 0.0 2.0 0.00 0.00 0.00 30 1012.6
20260503230032 74 126 0.0 3.0 0.00 0.00 0.00 33 1012.8
20260503225522 74 165 0.0 3.0 0.00 0.00 0.00 39 1012.9
20260503225032 74 331 1.0 3.0 0.00 0.00 0.00 33 1012.9
20260503224525 75 336 1.0 2.0 0.00 0.00 0.00 32 1013.0
20260503224022 74 62 0.0 3.0 0.00 0.00 0.00 34 1013.0
20260503223533 74 84 1.0 3.0 0.00 0.00 0.00 36 1013.2
20260503223027 74 272 1.0 5.0 0.00 0.00 0.00 35 1013.3
20260503222537 74 272 1.0 5.0 0.00 0.00 0.00 38 1013.3
20260503222025 75 146 1.0 5.0 0.00 0.00 0.00 32 1013.3
20260503221524 75 84 1.0 5.0 0.00 0.00 0.00 35 1013.3
20260503221033 77 167 2.0 6.0 0.00 0.00 0.00 25 1013.4
20260503220523 77 90 1.0 4.0 0.00 0.00 0.00 24 1013.5
20260503220019 77 216 2.0 4.0 0.00 0.00 0.00 27 1013.5
20260503215530 77 244 1.0 5.0 0.00 0.00 0.00 26 1013.7
20260503215019 77 221 2.0 5.0 0.00 0.00 0.00 29 1013.8
20260503214537 77 259 1.0 4.0 0.00 0.00 0.00 26 1013.8
20260503214028 77 49 1.0 3.0 0.00 0.00 0.00 27 1013.9
20260503213519 77 53 0.0 5.0 0.00 0.00 0.00 27 1014.0
20260503213034 77 24 3.0 5.0 0.00 0.00 0.00 28 1014.0
20260503212525 76 355 2.0 5.0 0.00 0.00 0.00 29 1014.0
20260503212037 76 281 1.0 6.0 0.00 0.00 0.00 30 1014.1
20260503211535 76 10 3.0 6.0 0.00 0.00 0.00 29 1014.3
20260503211022 76 104 0.0 4.0 0.00 0.00 0.00 31 1014.4
20260503210531 75 44 1.0 10.0 0.00 0.00 0.00 30 1014.5
20260503210027 75 300 2.0 10.0 0.00 0.00 0.00 30 1014.7
20260503205537 75 272 4.0 8.0 0.00 0.00 0.00 31 1014.7
20260503205026 75 342 4.0 8.0 0.00 0.00 0.00 32 1014.8
20260503204521 74 44 1.0 9.0 0.00 0.00 0.00 31 1014.8
20260503204037 74 321 4.0 9.0 0.00 0.00 0.00 31 1014.8
20260503203519 74 313 5.0 9.0 0.00 0.00 0.00 33 1014.8
20260503203054 74 26 3.0 10.0 0.00 0.00 0.00 31 1014.8
20260503202527 74 22 3.0 11.0 0.00 0.00 0.00 31 1014.8
20260503202019 74 360 5.0 11.0 0.00 0.00 0.00 32 1014.8
20260503201536 74 13 3.0 11.0 0.00 0.00 0.00 31 1014.8
20260503201027 74 340 6.0 11.0 0.00 0.00 0.00 33 1014.9
20260503200533 73 360 5.0 10.0 0.00 0.00 0.00 31 1015.0
20260503200031 74 349 5.0 10.0 0.00 0.00 0.00 31 1015.2
20260503195538 73 5 3.0 10.0 0.00 0.00 0.00 33 1015.2
20260503195027 73 9 5.0 11.0 0.00 0.00 0.00 33 1015.3
20260503194536 73 334 5.0 10.0 0.00 0.00 0.00 33 1015.3
20260503194035 73 5 5.0 9.0 0.00 0.00 0.00 32 1015.4
20260503193524 73 5 5.0 12.0 0.00 0.00 0.00 29 1015.3
20260503193019 73 53 4.0 12.0 0.00 0.00 0.00 28 1015.4
20260503192530 73 20 4.0 9.0 0.00 0.00 0.00 29 1015.5
20260503192037 73 325 4.0 10.0 0.00 0.00 0.00 30 1015.6
20260503191541 73 44 6.0 10.0 0.00 0.00 0.00 32 1015.6
20260503191027 72 314 1.0 9.0 0.00 0.00 0.00 31 1015.6
20260503190537 72 350 1.0 9.0 0.00 0.00 0.00 33 1015.8
20260503190039 72 346 2.0 6.0 0.00 0.00 0.00 33 1015.9
20260503185522 71 24 2.0 5.0 0.00 0.00 0.00 36 1016.0
20260503185031 69 81 0.0 3.0 0.00 0.00 0.00 43 1016.0
20260503184527 70 5 0.0 3.0 0.00 0.00 0.00 38 1016.1
20260503184034 69 69 1.0 3.0 0.00 0.00 0.00 48 1016.1
20260503183527 69 271 0.0 3.0 0.00 0.00 0.00 44 1016.1
20260503183022 68 272 1.0 3.0 0.00 0.00 0.00 40 1016.2
20260503182530 67 84 1.0 3.0 0.00 0.00 0.00 46 1016.2
20260503182019 64 207 1.0 3.0 0.00 0.00 0.00 53 1016.3
20260503181536 64 184 2.0 3.0 0.00 0.00 0.00 51 1016.2
20260503181027 63 163 1.0 4.0 0.00 0.00 0.00 53 1016.4
20260503180535 63 169 2.0 5.0 0.00 0.00 0.00 55 1016.4
20260503180034 62 163 3.0 5.0 0.00 0.00 0.00 53 1016.4
20260503175525 62 176 2.0 4.0 0.00 0.00 0.00 63 1016.5
20260503175034 62 180 2.0 4.0 0.00 0.00 0.00 65 1016.5
20260503174528 61 163 2.0 4.0 0.00 0.00 0.00 60 1016.5
20260503174020 61 142 1.0 5.0 0.00 0.00 0.00 62 1016.5
20260503173528 61 117 2.0 5.0 0.00 0.00 0.00 64 1016.5
20260503173022 60 171 2.0 4.0 0.00 0.00 0.00 62 1016.6
20260503172531 60 167 2.0 3.0 0.00 0.00 0.00 60 1016.6
20260503172020 59 165 2.0 4.0 0.00 0.00 0.00 65 1016.6
20260503171537 59 165 2.0 4.0 0.00 0.00 0.00 64 1016.7
20260503171024 59 152 0.0 3.0 0.00 0.00 0.00 68 1016.6
20260503170535 58 155 2.0 3.0 0.00 0.00 0.00 67 1016.8
20260503150536 51 178 2.0 3.0 0.00 0.00 0.00 84 1017.6
20260503131046 47 178 2.0 3.0 0.00 0.00 0.00 91 1017.3
20260503130529 46 223 0.0 3.0 0.00 0.00 0.00 92 1017.4
20260503110528 47 257 1.0 3.0 0.00 0.00 0.00 89 1017.5
20260503081533 51 236 2.0 4.0 0.00 0.00 0.00 82 1017.1
20260503081033 51 244 1.0 4.0 0.00 0.00 0.00 82 1017.1
20260503080538 51 252 2.0 4.0 0.00 0.00 0.00 82 1017.1
20260503072535 52 238 2.0 5.0 0.00 0.00 0.00 80 1017.1
20260503072024 53 237 2.0 5.0 0.00 0.00 0.00 77 1017.1
20260503071521 53 182 2.0 4.0 0.00 0.00 0.00 76 1017.0
20260503071030 53 186 2.0 5.0 0.00 0.00 0.00 78 1017.1
20260503070539 52 224 3.0 4.0 0.00 0.00 0.00 77 1017.0
20260503060106 55 231 1.0 3.0 0.00 0.00 0.00 73 1016.6
20260503055036 57 208 0.0 3.0 0.00 0.00 0.00 70 1016.7
20260503054553 57 227 0.0 6.0 0.00 0.00 0.00 69 1016.7
20260503054023 57 187 0.0 6.0 0.00 0.00 0.00 70 1016.6
20260503053532 56 184 3.0 5.0 0.00 0.00 0.00 70 1016.6
20260503053037 56 177 2.0 4.0 0.00 0.00 0.00 72 1016.5
20260503052539 57 248 2.0 4.0 0.00 0.00 0.00 71 1016.5
20260503052027 58 175 1.0 3.0 0.00 0.00 0.00 68 1016.5
20260503051521 58 175 0.0 4.0 0.00 0.00 0.00 67 1016.5